Wind_Speed
8 8 8 9 7 3 1 3 6 8 8 8 9 12 14 12 10 11 13 16 18 20 21 22 23 24 25 25 23 21 21 20 19 19 19 18 17 16 15 15 15 14 14 13 14 14 14 14 15 15 16 17 18 19 20 21 22 23 24 25 25 25 26 26 26 26 26 26 25 24 24 23 23 23 23 23 23 23 23 23 23 23 23 23 23
7 7 7 8 7 4 1 3 5 7 7 8 9 12 14 13 11 11 13 15 18 20 22 23 23 24 25 25 23 21 21 21 19 18 18 18 17 16 15 15 14 13 13 12 12 12 13 13 13 14 15 16 17 18 19 21 22 22 23 25 25 25 25 26 26 26 26 26 25 24 24 23 23 23 23 23 23 23 23 23 23 23 23 23 24
6 6 6 7 7 5 1 3 6 7 6 6 8 11 14 15 12 11 12 14 17 20 22 24 24 25 25 25 23 22 22 21 20 18 17 17 16 15 14 14 13 12 11 11 10 11 11 12 12 13 14 14 15 17 18 20 21 22 23 24 25 25 25 25 26 26 26 26 26 25 24 24 24 24 23 23 23 24 24 24 24 24 24 24 25
6 5 5 6 7 5 3 3 6 8 7 6 8 10 12 15 14 11 11 13 16 19 22 24 24 25 25 24 22 22 22 21 20 18 17 16 15 14 13 12 11 10 9 8 8 9 9 10 11 12 13 13 14 16 17 18 19 20 21 22 22 23 24 24 25 25 25 25 25 25 24 24 24 24 24 24 24 24 24 24 24 24 25 25 26
6 5 5 6 6 6 4 3 6 8 9 7 8 10 11 14 15 13 12 13 15 19 21 23 24 25 25 24 22 20 20 20 19 17 16 15 15 14 13 11 9 8 7 6 6 7 8 9 10 11 12 12 13 14 16 17 18 18 19 20 20 21 22 22 23 24 24 24 25 24 24 24 24 24 24 24 24 24 24 25 25 25 25 25 26
7 6 5 5 6 6 4 4 6 8 10 9 8 10 12 15 16 15 14 14 14 18 21 23 24 25 24 23 21 20 19 19 18 17 15 15 14 14 12 10 9 8 6 5 5 5 6 7 8 8 10 11 12 13 14 15 16 16 17 18 19 20 20 21 21 22 22 23 24 24 24 24 24 24 23 23 23 24 24 24 24 25 25 26 27
8 8 6 5 6 6 5 4 5 8 10 10 9 10 13 16 17 16 16 15 14 17 20 23 24 25 25 24 23 21 20 20 19 17 15 14 14 13 12 10 9 8 6 5 4 4 4 5 5 6 8 10 11 12 12 13 14 14 15 16 17 18 19 19 20 20 21 22 22 22 22 22 23 23 23 23 23 23 23 24 24 25 26 27 28
10 9 7 6 7 7 7 5 6 8 10 11 10 9 12 15 16 17 18 17 16 16 19 23 25 25 26 24 23 21 20 20 20 19 17 15 14 12 10 9 9 7 6 5 4 3 3 2 3 4 7 9 11 11 11 12 13 13 14 15 16 16 17 18 18 19 20 21 21 21 21 21 21 21 21 22 22 23 24 24 25 26 27 28 29
13 11 9 7 7 8 8 7 7 8 10 12 12 10 11 14 16 17 18 19 18 17 18 22 25 26 25 24 22 21 20 19 18 18 17 16 15 13 10 9 9 8 6 6 5 3 2 1 1 3 5 7 10 11 10 11 11 12 13 14 14 15 16 16 18 19 19 20 21 21 21 21 20 20 20 20 21 22 23 24 25 26 27 28 29
15 13 11 9 8 9 10 9 8 9 11 13 13 13 12 14 16 18 18 19 20 19 18 20 23 25 25 24 24 22 20 18 17 17 17 16 15 13 11 10 9 8 7 6 5 4 2 1 0 1 3 5 7 9 10 10 10 11 12 13 13 14 15 16 17 18 19 20 20 21 21 21 21 21 21 21 21 22 22 24 25 26 27 29 30
16 15 13 12 10 11 12 11 10 9 11 13 14 15 14 14 16 18 19 19 21 21 20 20 21 23 24 25 24 23 20 18 17 17 17 16 15 14 12 11 10 9 8 8 7 5 4 3 2 1 2 3 4 7 8 9 9 10 11 11 12 13 14 15 16 17 18 19 20 21 22 23 23 23 23 23 23 23 24 25 27 28 30 32 34
18 17 16 14 12 13 13 13 12 11 12 13 15 16 16 15 15 17 20 22 22 22 22 20 19 20 23 25 24 23 21 18 17 17 17 17 16 15 13 12 11 10 9 9 8 7 6 5 4 3 3 3 3 4 6 7 8 9 9 10 10 11 12 13 14 15 17 18 20 21 22 24 25 25 25 25 25 25 26 28 29 31 34 36 38
19 19 19 16 14 15 15 14 14 13 13 14 16 17 18 17 15 16 20 23 24 23 23 20 19 20 22 24 24 24 22 20 18 18 17 17 16 15 14 13 12 11 11 10 9 8 7 6 6 5 4 4 4 4 5 6 6 7 8 8 9 9 10 11 12 14 15 17 19 20 22 24 25 26 26 27 27 28 29 30 32 34 37 39 40
20 21 21 19 17 17 16 16 16 15 15 16 17 18 19 19 17 16 19 23 25 24 23 22 20 20 21 23 24 24 23 21 20 18 17 17 16 15 15 14 14 13 12 11 10 9 9 8 7 6 6 6 6 6 6 5 5 6 7 8 8 8 9 9 10 12 14 16 18 20 22 24 26 27 28 28 29 30 31 32 34 37 39 41 40
23 23 23 21 19 19 18 17 17 17 17 18 18 19 20 21 21 18 19 23 26 25 24 24 22 21 21 22 23 23 23 22 20 20 19 18 17 17 16 16 15 14 13 12 11 10 10 9 8 8 7 7 7 7 7 7 6 6 7 8 9 9 9 9 9 11 13 15 18 19 21 24 26 28 29 30 31 32 33 35 37 40 41 41 38
25 25 25 23 22 22 20 19 19 19 19 20 20 21 21 21 22 21 20 23 27 27 25 25 24 23 22 22 23 23 23 23 22 21 20 19 18 17 17 17 17 15 14 13 12 12 11 11 10 9 8 8 8 8 8 8 7 8 9 10 10 10 9 9 9 10 13 15 18 20 22 24 26 28 30 31 32 33 34 36 39 41 41 39 35
26 27 26 25 24 24 22 21 21 21 21 21 22 22 22 22 22 23 22 23 27 28 27 26 25 24 24 24 24 24 23 22 22 22 21 20 19 19 19 19 18 16 16 15 14 14 13 12 11 10 9 8 8 8 8 8 9 9 10 12 12 12 11 11 10 11 13 15 18 21 22 24 27 29 30 32 32 34 36 38 40 41 40 36 32
28 28 27 26 25 25 24 24 24 23 23 23 24 24 24 23 23 24 25 25 27 29 28 28 27 26 26 26 26 25 24 23 22 22 22 22 21 20 20 20 19 18 18 17 16 15 14 13 13 11 10 9 8 8 8 9 10 11 12 13 14 13 13 12 11 12 13 15 19 21 23 25 27 29 31 33 34 35 36 38 40 41 37 33 30
29 29 29 28 28 28 27 27 27 26 25 25 26 25 25 25 24 24 26 26 26 27 29 29 28 28 27 27 27 27 25 24 24 24 24 24 23 22 21 21 21 20 19 19 18 17 15 14 13 12 11 10 9 9 9 10 11 12 13 14 14 14 14 13 12 13 14 16 19 22 23 25 28 30 32 33 34 35 37 39 40 39 34 31 29
32 32 31 30 31 30 29 30 29 28 27 27 27 27 26 26 25 25 26 27 28 28 30 31 29 28 28 28 29 28 28 26 25 26 26 25 24 23 23 23 22 22 21 20 19 18 16 15 14 13 12 11 10 9 10 10 11 12 13 14 15 15 14 14 14 14 15 18 20 22 23 26 29 31 32 33 34 35 37 39 39 36 31 29 28
34 34 33 32 32 32 31 31 31 30 28 29 29 29 27 27 27 26 26 28 30 31 32 32 31 30 29 30 30 30 29 28 27 27 27 26 26 25 25 25 24 23 22 21 20 19 17 16 15 14 12 12 11 10 10 11 12 13 14 15 15 15 15 15 15 15 17 19 22 23 25 27 29 31 32 33 34 35 37 39 37 32 29 28 27
35 35 34 34 33 33 33 32 32 32 31 31 31 31 30 29 28 28 27 29 31 33 33 33 33 32 31 31 31 31 30 29 28 28 29 28 28 27 27 26 25 24 23 22 21 19 18 17 16 14 13 13 12 11 11 12 13 14 15 15 16 16 16 17 17 18 19 21 23 24 26 28 30 30 31 32 34 35 37 38 34 29 27 26 26
36 36 36 35 35 34 34 34 34 34 33 32 32 32 32 30 29 29 29 30 31 33 34 34 33 33 32 32 31 31 31 31 29 29 30 31 30 29 28 27 26 25 24 23 22 20 19 18 17 15 14 14 13 13 13 13 14 15 15 16 16 17 18 19 19 20 22 23 25 26 28 29 29 30 31 32 34 35 37 35 30 27 26 25 25
38 37 37 37 36 34 34 35 35 35 34 33 33 34 33 32 30 30 31 31 31 32 34 35 35 34 33 32 32 32 32 32 30 30 31 32 31 31 30 28 27 26 24 24 22 21 20 19 18 17 16 15 14 14 14 14 15 16 16 16 17 18 19 20 21 22 23 24 25 26 28 28 29 29 31 33 34 36 36 32 27 25 25 25 24
39 39 39 38 37 35 36 37 37 36 35 34 34 34 34 34 33 32 32 31 32 33 34 35 36 34 34 34 34 34 34 33 32 31 32 33 32 32 30 28 28 27 25 25 23 22 22 21 20 18 17 16 16 15 15 14 15 16 16 16 17 18 19 20 21 22 24 24 25 26 27 28 28 30 31 32 34 36 35 30 25 24 24 25 25
41 41 40 39 38 37 38 39 38 37 36 35 35 34 35 36 35 34 33 33 33 34 35 36 36 36 35 36 36 37 37 35 33 33 33 33 33 32 31 29 28 27 27 26 25 24 23 22 21 20 19 18 17 16 15 15 15 15 15 16 18 20 21 21 22 22 23 24 25 26 26 27 28 30 31 32 34 35 33 27 24 24 24 25 25
43 43 42 41 40 40 40 40 40 39 37 36 35 35 35 37 37 36 35 35 34 34 35 36 37 37 37 37 38 39 39 37 35 34 34 34 34 33 31 30 29 29 29 28 27 26 25 24 23 22 21 20 19 17 16 16 16 15 16 18 19 21 22 22 23 23 23 24 25 26 26 27 28 30 31 32 34 34 30 25 23 23 23 25 24
44 44 44 43 42 41 42 42 41 40 38 36 36 36 36 37 37 37 36 36 36 35 36 37 38 38 39 38 38 39 39 38 36 35 36 36 35 34 32 32 31 31 31 30 29 28 27 26 25 24 23 22 20 19 18 18 17 17 17 18 20 21 23 23 24 24 24 25 26 26 27 28 29 30 31 32 33 32 27 23 22 22 22 24 24
45 45 45 44 43 43 43 42 42 41 38 37 37 37 37 37 38 39 39 38 38 37 36 37 38 40 40 39 39 39 39 38 37 37 38 37 37 35 33 33 34 33 33 31 31 30 29 28 27 26 25 24 22 21 20 20 20 19 19 19 21 22 23 24 25 25 26 26 26 27 27 28 29 30 31 32 32 30 25 22 21 21 21 23 23
46 45 45 45 44 44 44 43 43 41 38 37 38 39 39 38 39 41 41 40 40 39 38 37 38 40 40 40 39 39 39 39 39 39 38 38 38 36 35 35 35 35 34 33 33 32 31 30 29 28 27 25 24 23 23 22 22 21 20 20 22 23 24 25 26 26 27 27 27 28 28 29 29 30 31 32 32 28 24 22 21 20 21 23 23
47 46 45 45 45 45 45 44 43 42 39 39 39 40 40 40 40 42 43 42 42 41 40 39 38 38 38 39 40 40 40 40 40 40 39 39 39 38 37 37 37 36 36 36 35 35 33 32 31 30 29 27 25 25 25 25 24 23 22 22 23 24 25 26 27 27 28 28 28 28 29 29 29 30 31 32 31 27 23 22 22 21 21 23 23
48 46 45 45 45 45 45 44 44 42 41 41 41 41 41 41 42 43 43 44 43 42 41 40 38 37 37 39 40 40 41 41 41 41 41 41 40 39 39 39 39 38 38 38 38 36 35 34 34 32 31 29 27 27 27 27 27 26 25 25 25 26 27 28 28 29 29 29 29 29 29 30 30 30 31 31 30 26 23 21 21 21 22 24 24
48 47 46 45 44 45 45 45 44 43 43 43 43 42 43 43 43 43 44 45 45 44 43 41 39 38 38 39 40 41 42 42 41 42 42 42 42 41 41 41 40 40 39 40 40 38 37 37 36 35 33 31 30 30 29 29 29 29 28 28 28 28 29 29 30 30 30 30 30 30 30 30 30 30 31 31 29 25 22 21 21 21 21 23 24
48 47 46 45 45 46 46 45 44 43 44 45 44 44 44 44 44 43 44 45 45 45 44 42 40 39 38 38 40 42 43 43 42 42 43 44 44 43 43 42 41 41 41 42 41 40 40 39 39 37 35 34 34 33 32 31 31 31 31 31 30 31 30 31 31 32 32 32 31 31 30 30 30 31 31 31 29 25 23 21 21 21 21 22 24
47 46 46 46 46 46 45 45 44 44 45 45 44 44 44 44 44 43 43 44 45 45 44 43 42 41 39 39 40 42 43 44 43 43 43 45 45 45 44 43 42 42 42 42 42 42 42 42 41 40 38 37 36 35 34 34 34 34 34 33 33 33 32 33 33 33 33 33 32 32 31 31 31 31 32 31 29 26 23 21 21 22 22 23 23
47 47 47 47 47 47 46 46 45 44 44 44 44 44 44 44 44 43 43 44 45 45 45 45 44 43 41 40 40 40 42 43 43 43 44 44 44 45 45 44 44 43 43 43 44 44 44 44 43 42 41 40 39 37 37 36 35 35 36 36 35 34 34 34 34 35 35 34 33 33 32 32 31 32 32 31 29 27 25 23 22 23 24 25 24
48 47 47 47 47 48 48 47 46 44 43 44 44 44 44 43 43 43 43 44 44 46 46 46 46 45 43 42 41 40 40 41 42 44 44 44 44 44 45 45 46 46 46 45 45 44 44 44 45 45 44 42 41 39 38 37 36 36 37 37 37 36 36 36 36 36 36 35 34 34 33 32 32 32 33 32 30 28 26 24 24 25 26 26 24
48 47 48 48 47 47 48 47 45 43 44 45 45 44 43 43 43 44 44 44 45 46 47 48 47 46 45 44 42 41 40 40 41 42 43 44 44 44 45 46 47 47 47 47 46 45 45 45 46 46 45 44 42 41 40 38 37 37 38 39 38 38 38 37 37 38 38 37 36 35 34 34 33 33 33 32 30 28 27 26 26 27 28 28 26
48 48 49 47 47 47 47 45 44 44 44 45 46 44 43 43 44 45 46 46 46 47 48 48 48 48 47 46 44 43 41 40 40 41 41 42 44 45 45 46 47 48 49 48 48 47 47 46 46 46 46 45 43 42 41 40 39 38 39 40 40 40 39 38 38 39 40 39 37 36 35 35 35 35 35 33 31 29 28 28 27 28 30 30 29
48 49 49 47 46 47 46 45 45 44 44 45 45 44 44 44 45 45 46 47 48 48 48 49 49 49 48 47 46 44 43 42 41 40 39 40 41 43 45 46 47 48 49 49 49 49 49 48 47 47 46 45 44 43 42 42 42 41 41 41 42 42 41 39 39 41 41 40 39 37 36 36 37 37 36 34 33 31 29 29 29 29 31 32 31
49 49 48 47 47 47 46 45 45 44 43 43 43 44 43 43 43 43 45 46 47 47 48 48 48 49 49 48 47 46 45 43 42 41 40 40 40 41 43 45 46 46 47 49 50 51 51 50 49 48 47 46 45 45 44 44 44 43 43 43 44 44 42 41 41 43 42 41 40 38 37 38 38 38 37 35 34 32 31 30 29 29 32 33 33
50 50 49 47 47 47 46 46 45 44 43 42 42 43 42 41 41 41 43 44 45 45 46 47 47 48 49 49 48 47 46 45 44 43 42 41 41 41 42 42 43 44 46 47 48 50 50 51 50 50 49 48 47 47 46 46 46 46 45 45 46 46 44 43 44 45 44 43 41 39 39 40 40 39 38 36 34 33 32 30 29 30 35 36 35
51 51 49 48 47 46 46 45 45 43 42 42 42 42 42 41 40 40 41 42 43 44 44 45 46 47 48 48 48 47 47 46 44 44 42 42 41 41 41 42 42 43 44 45 46 47 48 49 49 50 51 51 50 50 49 48 48 48 47 46 47 47 46 45 46 46 45 44 42 41 41 41 41 40 39 37 35 34 33 32 31 32 37 39 38
53 51 50 48 47 47 46 45 44 43 42 41 42 42 42 41 41 40 40 41 42 43 44 45 46 46 47 48 48 48 48 48 46 45 44 44 43 43 42 43 43 44 45 45 45 45 46 46 47 49 51 52 51 51 51 50 49 49 48 48 47 47 47 47 48 47 46 45 43 43 43 42 42 41 40 38 37 36 36 35 35 35 37 39 39
53 52 51 49 48 48 47 46 45 44 42 42 42 43 42 41 41 40 40 41 41 43 44 45 47 48 49 50 51 52 52 51 49 48 47 46 45 45 44 43 43 44 45 45 45 45 45 45 46 47 49 50 51 51 51 51 50 49 49 48 48 48 48 48 49 48 47 45 44 44 44 43 43 42 41 41 40 39 38 38 38 38 38 39 40
55 53 52 50 49 48 48 47 46 45 44 43 44 44 43 41 40 40 39 40 41 42 44 46 48 49 51 52 53 54 54 53 52 50 49 48 48 47 47 46 45 45 45 45 45 45 45 45 45 46 46 47 49 50 51 50 50 49 49 49 49 49 49 49 49 48 46 45 45 45 45 44 44 44 44 44 43 42 41 40 40 40 40 40 41
56 55 53 51 50 50 49 48 47 46 45 45 45 45 44 42 41 40 40 40 40 41 43 45 47 49 50 51 52 52 52 52 52 52 51 50 50 50 49 48 47 46 45 45 44 44 44 44 44 44 45 46 48 49 50 49 49 49 49 49 49 49 49 48 48 47 46 46 46 46 46 46 46 46 46 46 45 44 43 42 42 42 42 42 42
58 56 55 53 52 51 51 50 49 48 47 47 47 46 46 44 43 42 42 41 41 40 41 43 45 46 47 49 50 50 51 51 52 52 52 52 51 51 51 49 48 47 46 45 44 44 44 44 44 44 45 46 47 48 49 48 48 49 49 49 49 48 48 47 47 47 47 48 48 48 48 48 48 48 47 47 46 45 45 44 43 43 43 43 43
59 57 56 54 53 53 53 52 51 50 50 49 49 49 48 48 46 45 44 42 42 41 41 41 42 43 44 45 47 49 50 51 52 51 52 52 53 53 52 51 50 48 47 45 45 44 43 43 43 44 45 46 47 47 47 47 47 47 47 47 47 47 47 47 47 48 49 50 50 50 50 50 50 49 49 48 47 47 46 45 45 45 45 45 45
62 60 58 56 54 54 54 54 53 52 51 51 51 51 51 50 49 47 45 43 42 41 41 41 42 42 43 44 45 47 49 50 51 51 52 52 53 53 53 52 51 50 49 48 46 45 44 43 43 44 45 45 46 46 46 46 46 46 46 46 46 47 47 48 50 51 52 52 52 52 52 52 51 51 50 49 48 48 47 47 47 47 47 47 48
63 62 60 58 56 55 56 55 54 53 52 51 51 52 52 51 50 49 47 45 43 42 42 42 42 42 43 44 45 46 47 48 49 50 51 52 53 53 53 53 53 52 52 52 50 49 48 47 47 47 48 48 48 48 47 47 47 47 47 48 49 49 50 51 53 53 54 54 55 54 54 53 52 51 50 50 49 49 49 49 49 49 49 49 50
Wind_Direction
324 333 351 2 4 14 139 177 166 153 137 128 141 150 148 155 164 159 153 151 155 155 152 152 152 153 154 152 149 148 149 147 142 139 136 134 134 133 131 128 125 121 118 114 107 100 92 86 81 75 71 69 68 68 68 68 67 66 66 66 66 65 65 65 64 64 64 64 62 59 58 56 54 51 50 47 45 43 40 38 36 33 31 28 27
318 325 342 357 1 2 207 198 185 173 156 138 148 158 154 157 169 170 163 158 160 162 158 156 157 156 156 155 155 154 156 155 151 146 142 139 138 136 135 132 129 126 123 117 109 100 92 84 78 74 71 70 70 70 69 68 68 67 66 66 66 65 64 64 63 62 61 61 59 57 55 53 51 49 47 45 42 40 38 36 34 32 30 27 26
307 318 331 346 355 352 300 213 198 185 173 150 151 166 164 159 171 181 174 164 165 168 164 160 160 161 160 159 158 158 160 161 158 154 149 147 146 143 142 140 137 132 127 120 110 99 90 82 77 73 69 69 71 71 71 71 69 68 67 66 66 65 63 62 61 59 56 56 55 53 50 48 46 44 42 41 39 37 35 33 31 29 27 25 23
293 304 316 329 342 343 314 231 210 192 183 168 155 171 175 165 170 187 184 170 169 173 171 165 164 164 162 160 160 161 164 165 164 161 156 154 155 154 151 150 146 139 132 124 112 99 89 82 76 71 66 66 70 73 73 72 70 69 67 66 64 62 60 57 56 54 51 49 50 48 45 42 40 38 35 34 33 32 30 28 26 24 22 20 18
279 287 300 311 323 330 314 256 225 202 190 187 170 173 183 176 173 185 191 181 174 177 178 173 169 167 165 163 161 163 167 169 167 166 164 162 162 163 162 160 157 151 143 134 119 102 92 84 78 71 64 61 66 71 72 71 69 67 66 64 62 59 57 53 51 50 48 45 43 42 39 37 35 34 31 29 28 27 25 23 21 20 18 15 12
271 277 284 296 305 313 306 270 240 217 197 197 192 179 185 188 181 179 190 192 182 180 181 179 175 172 170 169 168 169 172 175 175 173 172 171 170 170 171 172 169 166 160 146 131 111 98 90 82 72 63 58 61 67 69 68 66 64 61 60 58 56 54 52 50 48 46 43 41 38 34 32 30 29 27 25 24 23 21 19 17 15 13 10 7
266 272 276 282 290 295 294 274 250 235 212 201 207 197 192 197 189 178 187 197 192 186 185 184 182 178 177 177 178 178 177 179 181 182 181 179 178 177 180 183 181 180 175 161 147 130 113 98 87 76 63 58 58 61 65 65 62 59 56 55 53 53 52 50 48 47 45 43 41 37 32 29 26 24 22 21 19 17 16 14 12 10 7 4 2
265 269 272 275 278 281 281 273 252 242 228 210 209 215 208 206 198 184 185 194 197 195 191 189 189 186 183 183 182 182 181 181 184 186 188 188 187 187 190 193 193 191 188 177 168 160 142 110 84 69 60 56 54 55 59 58 55 51 49 48 48 48 48 47 44 42 41 39 36 34 30 27 24 22 19 17 15 12 10 9 7 5 3 0 357
265 268 270 270 271 273 272 267 250 239 235 221 210 215 218 212 207 197 190 192 197 200 198 195 195 192 188 186 185 185 187 188 190 191 192 193 194 197 200 201 201 202 201 196 191 186 173 145 70 51 48 47 46 47 49 49 46 42 39 39 40 40 40 40 38 37 36 34 31 30 28 25 22 19 16 14 11 8 6 5 2 0 358 356 353
264 268 270 267 267 269 266 261 254 242 238 232 218 214 217 215 211 206 198 196 199 201 203 202 200 197 192 189 189 190 191 193 197 200 201 202 202 204 207 207 208 213 217 219 218 216 213 214 275 13 34 36 37 38 39 39 36 34 32 32 32 32 32 33 32 32 31 29 26 25 24 21 19 16 13 11 9 6 4 1 358 356 354 351 349
262 266 266 265 264 264 264 260 255 247 241 239 231 220 219 221 218 211 204 202 203 204 207 207 203 200 197 195 194 194 195 196 197 202 205 208 210 211 212 213 214 220 226 233 235 236 238 244 256 293 348 6 17 25 27 26 25 26 26 26 25 24 25 26 27 27 25 22 20 19 19 18 17 15 12 10 7 4 1 358 355 353 351 349 346
260 263 263 262 260 260 262 261 257 251 244 241 237 229 222 223 225 218 208 206 208 208 210 210 204 202 201 200 198 197 197 197 196 198 203 207 211 213 214 215 218 222 229 235 238 240 241 245 254 273 298 316 329 350 6 11 14 17 18 18 17 16 19 22 23 22 19 15 13 12 13 13 13 13 11 8 4 1 358 356 353 351 349 347 345
258 260 261 260 258 257 258 260 258 253 248 243 239 235 229 223 224 224 216 211 211 211 213 212 206 204 205 204 203 201 200 199 197 198 202 206 210 212 214 216 219 222 228 235 238 239 239 241 251 266 284 295 299 306 325 343 353 2 6 6 8 8 11 14 16 16 12 8 6 5 6 7 8 8 7 4 1 358 356 353 351 349 348 346 344
256 257 259 259 256 256 256 257 256 253 250 247 243 239 234 227 223 223 220 217 216 214 215 215 209 206 208 209 208 206 203 204 204 203 204 207 209 212 216 219 222 225 230 235 239 240 239 239 247 258 270 281 284 287 293 305 323 336 344 350 354 356 358 1 4 6 3 0 358 358 359 0 1 2 1 359 357 355 353 351 349 348 347 345 344
254 254 257 258 256 256 255 253 253 252 250 249 247 242 237 232 226 222 219 218 219 218 215 216 214 209 210 213 213 210 207 207 209 209 209 210 211 214 219 223 227 229 231 235 240 242 242 241 245 254 261 268 273 276 278 284 298 311 321 330 338 341 343 345 349 352 352 351 350 350 351 353 355 356 356 355 353 352 351 349 348 347 345 344 345
250 252 254 255 255 255 256 254 251 249 248 248 248 245 241 236 231 226 221 218 220 221 218 216 216 213 212 216 218 215 211 209 211 213 214 214 214 215 219 224 228 230 231 233 237 241 243 244 246 253 257 261 265 269 273 277 287 298 308 317 324 327 328 329 332 337 340 341 341 342 345 348 350 350 350 350 350 349 349 348 347 345 344 345 347
246 249 251 252 253 255 257 256 252 247 246 246 247 247 244 241 236 230 226 222 220 221 220 219 218 216 214 218 221 220 215 212 214 216 217 216 216 215 218 223 226 228 229 230 234 239 242 244 248 252 256 260 263 268 274 279 286 295 302 308 313 316 316 315 317 321 327 331 334 336 339 343 345 345 346 347 347 347 347 346 345 343 344 346 350
245 247 250 251 251 254 254 254 252 247 243 243 244 245 244 243 239 232 229 228 225 223 221 219 218 217 217 219 223 224 220 217 216 217 217 217 217 216 218 221 223 225 228 230 233 236 240 244 250 253 257 261 267 275 281 288 293 297 301 304 306 307 308 307 307 311 317 322 327 330 334 339 341 341 342 343 344 345 345 344 343 343 344 348 351
243 244 247 248 249 251 251 252 253 249 243 241 242 243 243 242 241 235 229 229 232 231 226 222 219 217 217 219 224 227 225 222 219 219 220 219 219 219 219 221 223 224 227 230 232 235 237 242 248 253 257 261 269 279 287 294 299 302 304 304 305 305 305 305 305 308 311 316 321 325 330 335 337 338 339 340 342 343 343 342 342 342 346 350 351
240 242 244 246 249 251 251 252 253 252 246 241 241 242 242 242 243 240 233 228 229 229 226 225 223 221 220 221 224 228 228 225 222 223 224 224 222 221 221 222 224 225 226 229 231 233 234 237 242 248 254 261 270 279 288 295 300 304 306 305 306 306 306 307 307 308 310 313 317 321 326 331 333 334 336 338 339 340 340 341 341 343 347 350 351
239 243 245 247 250 252 253 254 255 253 247 242 240 240 240 240 241 242 238 231 227 226 225 224 223 222 223 223 224 228 230 229 226 226 228 227 225 224 224 225 226 227 228 230 230 231 231 232 236 241 251 260 268 276 284 292 298 303 305 305 306 307 309 310 309 310 311 313 316 319 324 328 329 331 333 335 336 337 339 340 341 344 347 349 351
240 243 246 248 250 252 254 255 256 254 250 245 242 239 238 237 238 239 238 233 230 228 227 225 223 222 223 224 225 228 231 232 230 229 230 229 228 227 228 229 229 229 230 231 231 231 230 230 233 239 247 255 264 271 279 287 293 299 302 305 308 309 310 311 311 312 312 312 316 318 321 324 325 327 330 332 334 336 338 340 341 344 346 347 350
242 244 246 248 250 251 253 255 256 256 255 251 245 240 238 237 237 238 239 236 232 231 232 230 226 222 223 226 227 229 232 234 233 232 232 231 230 230 231 232 232 232 232 232 232 231 230 231 233 238 244 252 260 268 276 283 289 294 299 304 308 309 309 309 310 311 311 311 314 316 318 320 322 325 328 331 333 335 337 339 342 344 345 345 349
243 245 247 249 251 252 253 254 254 255 255 252 247 242 239 237 236 236 238 238 234 232 234 235 232 226 223 225 229 232 233 234 234 233 233 235 234 233 233 233 233 233 234 233 232 230 230 233 236 240 244 250 259 267 274 281 285 289 294 299 304 307 307 308 308 308 307 308 312 314 315 317 320 324 327 329 332 335 337 339 341 344 342 342 346
243 245 247 248 250 250 250 251 252 253 253 252 249 245 240 237 235 234 235 237 237 234 233 235 237 233 225 222 226 231 234 234 234 233 233 235 236 236 236 235 234 234 233 233 232 230 230 234 238 241 246 251 259 266 272 276 280 284 290 297 303 305 306 305 304 304 305 307 310 312 314 316 320 324 326 328 332 334 336 338 341 342 340 339 343
242 244 245 247 248 248 249 250 251 251 251 249 248 245 241 238 236 234 234 235 237 236 233 234 236 237 231 224 223 227 232 233 233 233 234 235 236 238 238 236 234 233 232 232 231 230 231 236 239 242 247 252 259 264 266 269 272 279 289 297 302 304 304 303 301 301 303 306 309 310 312 315 319 323 325 328 332 334 335 337 339 340 338 335 340
242 244 245 246 248 248 249 251 251 251 249 247 245 244 242 239 237 235 234 234 235 236 235 234 234 236 236 231 225 224 228 231 233 235 236 236 236 237 237 237 235 233 231 231 230 230 232 236 239 242 247 253 259 260 259 261 266 276 288 295 300 302 303 302 300 299 301 304 307 308 310 315 318 321 324 327 332 333 333 334 336 337 334 332 338
244 246 247 248 249 250 251 251 251 250 248 245 243 243 242 240 238 236 235 234 235 236 237 236 236 236 238 237 232 229 228 229 231 234 237 237 237 236 236 236 235 233 232 232 231 231 233 236 239 243 248 254 259 257 256 257 263 273 284 291 296 299 301 301 300 299 300 302 305 307 309 314 317 320 323 327 332 331 330 330 332 333 330 328 335
246 247 249 250 250 251 251 250 250 249 247 243 241 241 241 240 238 236 235 234 234 236 237 238 238 238 239 240 239 235 232 228 228 231 235 237 238 238 237 236 235 235 235 234 233 233 235 237 239 243 249 254 258 257 256 258 264 271 279 286 290 294 297 299 299 299 299 301 304 306 309 313 316 318 323 327 330 329 326 326 327 328 325 324 331
247 248 250 251 251 251 250 249 249 248 245 241 239 239 239 238 237 236 234 233 233 234 236 238 239 240 240 241 241 240 236 232 228 229 232 236 239 239 239 238 237 237 237 236 236 237 238 239 241 244 249 254 258 258 257 260 265 270 275 281 287 290 294 297 298 299 299 300 302 305 308 311 314 317 322 326 328 326 323 322 323 323 321 320 327
247 248 249 251 251 250 250 249 248 246 244 240 238 238 238 238 237 236 235 233 233 234 236 237 239 241 241 241 241 241 240 236 232 230 231 234 237 238 239 240 239 239 239 238 239 239 241 242 243 246 249 254 259 260 259 260 264 268 273 278 284 288 291 294 297 298 298 299 301 304 307 310 312 317 321 325 326 323 319 318 319 319 318 318 324
246 247 248 249 249 249 248 248 247 246 243 241 239 237 237 238 237 236 235 234 233 233 235 237 239 240 240 240 239 240 241 239 236 234 232 232 234 236 238 239 240 240 241 241 241 242 243 244 245 247 250 254 258 261 261 261 264 267 271 277 282 286 289 292 295 297 297 298 299 302 305 308 311 316 320 322 323 319 314 313 313 314 315 316 321
246 246 247 247 247 246 245 245 245 244 243 242 239 237 236 236 236 236 235 234 233 233 234 236 238 239 240 240 240 241 242 241 241 239 236 234 233 235 236 237 239 241 242 243 243 244 245 246 247 249 251 253 256 259 261 263 265 268 270 274 280 284 287 290 292 294 296 297 298 300 303 306 309 314 318 319 319 314 309 307 306 307 309 310 315
247 247 247 245 244 244 244 244 243 242 242 241 240 238 237 237 237 236 236 236 235 234 234 236 238 239 240 241 241 242 243 243 243 243 241 238 236 235 236 236 238 240 241 243 244 246 246 247 248 250 251 253 255 257 261 264 267 269 270 273 276 281 285 288 290 292 294 295 296 298 301 304 307 312 315 316 315 310 304 302 301 302 303 304 310
246 246 245 243 243 243 244 243 242 241 241 241 241 240 240 239 238 236 237 237 237 236 235 236 238 239 240 241 242 242 242 243 244 244 244 243 241 239 238 237 238 239 241 243 245 246 246 247 249 250 251 253 255 257 261 265 268 270 270 271 274 278 282 285 288 290 291 293 295 296 298 301 306 310 312 313 311 305 300 298 297 298 300 299 306
244 243 242 240 240 240 240 241 240 240 241 241 241 240 240 239 238 237 236 236 236 235 235 235 237 238 239 240 242 242 242 242 243 244 245 245 245 244 242 240 239 239 240 242 244 245 246 248 249 250 251 253 255 258 261 265 268 270 270 270 272 275 279 283 286 288 289 291 293 294 296 299 303 307 309 310 307 300 296 295 294 295 296 296 302
241 241 240 239 239 238 239 239 239 239 239 240 240 240 239 239 238 236 235 235 234 233 233 233 234 236 238 239 240 242 242 242 242 243 245 246 247 247 246 245 243 242 241 242 243 245 247 248 250 250 252 253 255 258 261 264 267 270 270 269 271 274 277 281 285 287 287 289 290 291 293 297 300 304 306 306 303 297 293 293 293 293 293 294 300
239 238 238 237 237 237 238 238 238 237 237 237 238 238 238 237 236 235 234 234 233 232 231 231 232 234 236 238 239 240 241 241 242 242 244 246 247 248 248 247 247 246 245 244 244 245 246 248 250 251 253 254 256 258 260 262 266 268 269 269 270 273 276 280 284 286 286 287 288 289 292 295 298 301 303 304 300 294 290 290 291 293 293 295 301
237 237 237 236 236 236 237 237 237 236 235 235 236 237 236 235 234 234 233 233 232 231 230 230 230 232 234 236 238 239 239 240 241 241 243 244 246 247 248 248 248 249 249 248 248 247 247 248 249 251 252 254 255 256 258 260 263 266 267 268 270 271 274 278 282 284 284 284 286 287 290 293 296 298 300 301 297 292 287 286 288 291 293 296 300
235 236 236 236 236 236 236 236 235 234 235 235 236 237 237 236 235 234 235 234 234 232 231 230 230 231 233 235 237 238 239 240 240 241 242 243 244 246 246 247 248 249 250 251 251 250 250 249 250 251 253 253 254 254 256 259 262 265 266 267 269 271 273 277 280 281 282 282 284 285 287 290 293 295 298 298 295 290 286 284 286 289 292 294 299
234 235 236 235 236 236 236 236 236 235 235 235 236 237 238 239 238 237 237 237 236 235 235 233 232 231 232 234 236 238 240 241 242 242 243 244 245 246 246 246 247 248 249 250 251 252 252 251 251 252 253 253 253 253 254 257 261 264 265 266 268 270 273 276 279 279 280 280 282 283 285 287 289 292 295 295 292 288 284 283 286 288 289 291 297
232 234 235 235 236 237 237 237 237 237 236 235 236 237 239 240 239 237 237 237 237 237 237 236 234 233 233 234 236 238 241 243 244 244 245 246 247 248 248 247 248 248 249 249 250 251 252 252 252 253 253 254 254 254 255 257 260 263 264 265 266 269 272 275 277 277 278 279 280 281 282 284 287 291 293 292 289 286 282 282 284 286 288 292 297
232 234 235 235 236 237 238 238 239 239 238 237 237 238 239 240 239 237 236 236 236 236 236 236 236 236 235 235 236 239 241 242 243 243 243 244 246 247 247 247 247 248 248 249 249 250 251 252 253 253 254 254 255 256 256 258 260 262 264 264 265 268 271 274 275 276 277 277 278 279 280 283 287 290 291 289 286 282 279 279 280 282 287 294 298
231 233 235 236 237 238 238 239 239 240 239 239 239 239 240 240 240 238 236 234 234 234 234 235 235 235 236 235 236 237 238 239 240 240 240 241 242 244 244 244 244 244 245 246 247 248 250 251 252 253 254 255 256 257 258 259 260 262 263 264 265 267 270 273 274 275 276 276 277 279 281 284 287 288 288 286 283 280 277 277 277 279 282 288 292
232 233 234 236 238 239 239 239 240 240 239 238 239 240 241 241 240 240 238 235 234 233 232 232 233 233 233 233 233 234 235 236 238 239 240 240 241 242 243 243 243 244 244 245 245 246 248 249 251 252 254 255 256 257 258 259 260 261 263 264 265 267 269 272 273 273 275 275 277 278 281 284 286 286 285 283 281 279 276 275 276 278 281 284 288
232 233 234 236 238 239 240 240 240 240 239 238 238 239 240 240 240 239 239 237 235 233 232 232 232 232 233 233 234 234 235 236 237 238 240 241 242 243 244 245 247 248 249 249 248 248 249 250 252 253 255 256 257 257 258 259 259 260 262 263 265 267 268 270 271 272 273 274 275 278 280 282 283 283 282 282 280 278 276 275 275 278 281 284 288
233 233 234 236 237 238 239 240 240 240 239 238 238 239 238 238 239 239 240 239 238 237 236 235 233 233 234 234 236 237 237 237 238 239 240 241 242 244 246 247 250 252 253 253 252 252 252 253 253 255 255 255 256 257 257 258 259 260 262 263 264 266 267 268 269 269 270 272 274 276 278 279 280 280 280 280 279 277 276 275 276 278 281 284 287
232 234 234 236 237 239 239 239 239 239 239 238 237 237 238 238 240 241 242 242 242 240 239 238 238 237 236 236 236 237 238 238 239 239 240 242 243 245 247 248 250 252 252 253 252 252 252 253 254 254 255 255 256 257 257 258 259 260 261 263 264 266 266 267 267 268 269 271 273 275 277 277 278 279 279 278 277 276 275 275 276 278 281 284 286
232 233 234 236 237 239 240 239 239 239 238 238 237 237 238 240 242 243 244 244 244 243 242 241 241 241 240 239 239 239 239 239 240 240 241 242 243 245 247 248 249 250 250 250 251 251 252 252 253 254 255 255 256 257 258 259 260 261 262 263 264 265 265 265 266 267 269 271 272 274 275 276 277 277 277 277 275 274 274 275 276 279 281 283 286
234 233 234 236 237 239 240 240 240 239 238 238 238 238 239 240 241 243 244 244 244 244 243 243 243 243 243 243 242 241 241 241 242 241 242 242 243 245 246 248 248 249 249 249 250 250 252 253 255 256 256 257 257 258 259 260 261 262 263 264 264 264 265 265 266 268 269 271 272 273 274 275 276 276 276 275 274 273 274 274 276 279 281 283 286
235 233 234 236 237 239 240 240 240 239 238 238 239 239 239 240 240 241 242 243 243 243 243 243 243 243 244 244 243 243 243 242 242 242 242 242 243 244 245 246 247 248 249 250 251 252 254 256 257 258 259 259 259 260 260 261 262 263 264 264 264 265 266 267 268 269 271 271 272 273 273 274 274 274 274 273 272 272 273 274 276 279 281 283 285
Height
10975 10974 10975 10975 10976 10976 10975 10975 10976 10976 10976 10976 10977 10977 10978 10980 10982 10983 10984 10985 10987 10988 10990 10991 10992 10993 10995 10996 10997 10999 11000 11000 11001 11001 11001 11002 11003 11005 11005 11006 11006 11006 11006 11006 11006 11005 11005 11005 11005 11005 11005 11006 11006 11006 11005 11005 11004 11003 11003 11002 11002 11002 11001 11001 11001 11001 11000 11000 10999 10999 10999 10998 10997 10997 10996 10995 10994 10994 10993 10992 10991 10991 10990 10989 10988
10974 10974 10974 10975 10976 10976 10976 10975 10976 10976 10976 10976 10977 10977 10978 10980 10982 10984 10984 10985 10987 10988 10990 10991 10992 10994 10995 10996 10998 10999 11000 11001 11002 11002 11002 11003 11004 11006 11006 11007 11007 11007 11007 11007 11007 11007 11007 11007 11007 11007 11007 11007 11007 11008 11007 11006 11006 11006 11005 11004 11004 11004 11004 11003 11003 11002 11002 11001 11001 11001 11000 10999 10999 10998 10997 10996 10996 10995 10994 10994 10993 10992 10991 10990 10989
10974 10973 10974 10975 10975 10976 10976 10976 10976 10976 10977 10977 10977 10978 10978 10980 10982 10984 10985 10986 10987 10988 10990 10991 10992 10994 10995 10996 10998 10999 11001 11002 11003 11003 11003 11004 11005 11006 11007 11008 11008 11008 11009 11009 11009 11008 11008 11008 11008 11008 11008 11009 11009 11009 11009 11009 11008 11008 11007 11006 11006 11006 11006 11005 11005 11004 11004 11003 11002 11002 11001 11001 11000 10999 10999 10998 10997 10996 10995 10995 10994 10993 10992 10991 10990
10974 10973 10973 10974 10975 10975 10976 10976 10976 10976 10977 10977 10977 10978 10979 10980 10982 10984 10985 10986 10988 10989 10990 10991 10992 10994 10995 10997 10999 11000 11001 11002 11003 11004 11004 11005 11006 11007 11008 11008 11009 11009 11010 11010 11010 11009 11009 11009 11009 11009 11010 11010 11011 11010 11010 11010 11010 11010 11009 11009 11008 11008 11007 11007 11006 11005 11005 11004 11003 11003 11003 11002 11001 11000 11000 10999 10998 10997 10997 10996 10995 10994 10993 10991 10990
10973 10973 10973 10973 10974 10975 10976 10976 10976 10976 10977 10977 10978 10978 10979 10980 10981 10984 10985 10986 10988 10989 10990 10992 10993 10994 10996 10997 10999 11001 11002 11003 11004 11004 11005 11006 11007 11008 11008 11009 11009 11010 11010 11011 11010 11010 11010 11010 11010 11011 11011 11012 11012 11012 11012 11012 11012 11011 11011 11011 11010 11009 11009 11008 11007 11007 11006 11005 11004 11003 11003 11003 11003 11002 11001 11000 10999 10998 10998 10997 10995 10994 10993 10992 10990
10971 10972 10973 10973 10974 10975 10975 10976 10976 10976 10976 10977 10977 10978 10979 10980 10980 10983 10985 10986 10987 10989 10990 10992 10993 10995 10996 10998 10999 11001 11002 11003 11004 11005 11006 11006 11007 11008 11009 11009 11010 11010 11011 11011 11011 11011 11011 11011 11012 11012 11013 11013 11013 11013 11013 11013 11013 11013 11012 11012 11011 11010 11010 11009 11009 11008 11008 11007 11005 11004 11004 11004 11003 11003 11002 11002 11001 11000 10999 10997 10996 10995 10993 10992 10990
10970 10971 10972 10973 10973 10974 10975 10975 10975 10976 10976 10977 10977 10978 10978 10979 10980 10982 10984 10986 10987 10989 10990 10992 10993 10994 10996 10997 10999 11000 11001 11003 11004 11005 11006 11007 11008 11009 11009 11010 11010 11011 11011 11012 11012 11012 11012 11012 11013 11013 11014 11014 11014 11014 11014 11014 11014 11014 11013 11013 11012 11012 11011 11011 11010 11010 11009 11008 11007 11006 11006 11005 11004 11003 11002 11002 11001 10999 10999 10997 10996 10994 10993 10991 10990
10968 10969 10970 10972 10973 10974 10975 10975 10975 10975 10976 10976 10977 10978 10978 10979 10980 10981 10983 10985 10987 10988 10990 10991 10992 10994 10995 10997 10998 11000 11001 11002 11004 11005 11006 11007 11008 11009 11010 11010 11011 11012 11012 11012 11012 11013 11013 11013 11014 11014 11015 11015 11015 11015 11015 11014 11014 11014 11014 11013 11013 11013 11012 11012 11011 11010 11009 11009 11008 11008 11007 11006 11005 11004 11003 11001 11000 10999 10998 10996 10995 10994 10993 10991 10990
10966 10967 10969 10970 10971 10973 10974 10974 10974 10975 10975 10975 10976 10977 10978 10979 10980 10981 10982 10984 10985 10987 10989 10990 10992 10993 10995 10997 10998 10999 11001 11002 11003 11005 11006 11007 11008 11009 11010 11011 11012 11012 11013 11013 11013 11013 11014 11014 11014 11014 11015 11015 11015 11015 11015 11015 11015 11014 11014 11014 11014 11013 11013 11012 11012 11011 11010 11009 11009 11008 11008 11007 11006 11005 11003 11002 11000 10999 10998 10997 10996 10995 10993 10992 10990
10964 10965 10967 10968 10970 10971 10972 10973 10974 10974 10974 10975 10975 10976 10977 10978 10979 10981 10982 10983 10984 10986 10988 10989 10991 10993 10995 10996 10997 10998 11000 11002 11003 11004 11005 11006 11007 11009 11010 11011 11012 11013 11013 11013 11014 11014 11014 11014 11015 11015 11015 11015 11016 11016 11016 11016 11015 11015 11015 11015 11014 11014 11014 11013 11012 11011 11010 11010 11009 11009 11008 11007 11007 11005 11004 11003 11002 11001 10999 10998 10997 10995 10994 10992 10990
10962 10963 10965 10966 10968 10969 10970 10971 10973 10973 10974 10974 10974 10975 10976 10977 10978 10980 10982 10983 10984 10985 10986 10988 10990 10992 10994 10995 10996 10998 10999 11001 11002 11004 11005 11006 11007 11008 11010 11011 11012 11013 11013 11014 11014 11014 11015 11015 11015 11015 11016 11016 11016 11016 11016 11016 11016 11016 11016 11015 11015 11015 11014 11013 11013 11012 11011 11010 11010 11009 11008 11008 11007 11006 11005 11004 11002 11001 11000 10998 10997 10995 10993 10991 10989
10960 10961 10963 10964 10966 10967 10968 10970 10971 10972 10973 10973 10974 10974 10975 10976 10978 10979 10981 10982 10983 10984 10985 10987 10990 10992 10993 10994 10996 10997 10999 11000 11001 11003 11004 11005 11006 11008 11009 11010 11011 11012 11013 11014 11014 11015 11015 11015 11015 11016 11016 11017 11017 11017 11017 11017 11017 11016 11016 11016 11016 11015 11015 11014 11013 11013 11012 11011 11010 11009 11008 11008 11007 11006 11005 11004 11002 11001 10999 10998 10996 10994 10992 10989 10987
10958 10959 10960 10962 10964 10965 10967 10968 10969 10971 10971 10972 10972 10973 10974 10975 10976 10978 10979 10981 10982 10983 10984 10986 10989 10991 10992 10993 10995 10996 10998 10999 11000 11001 11002 11004 11006 11007 11009 11010 11010 11012 11013 11013 11014 11015 11015 11015 11015 11016 11016 11017 11017 11017 11017 11017 11017 11017 11017 11017 11016 11016 11016 11015 11014 11013 11012 11011 11010 11009 11008 11008 11007 11006 11004 11003 11002 11000 10999 10997 10995 10993 10990 10988 10985
10956 10957 10958 10960 10962 10963 10965 10966 10967 10968 10969 10970 10971 10972 10972 10973 10975 10976 10978 10980 10981 10982 10984 10985 10987 10989 10991 10993 10994 10995 10997 10999 10999 11000 11001 11003 11005 11006 11008 11009 11010 11011 11012 11013 11014 11015 11015 11016 11016 11016 11017 11017 11017 11017 11017 11017 11017 11017 11017 11017 11017 11016 11016 11015 11014 11013 11012 11011 11010 11010 11009 11008 11006 11005 11004 11003 11001 10999 10998 10996 10994 10991 10989 10986 10983
10954 10955 10955 10957 10959 10960 10962 10964 10965 10966 10967 10968 10969 10970 10971 10971 10973 10975 10977 10978 10979 10981 10983 10984 10986 10988 10990 10991 10992 10994 10996 10998 10999 10999 11000 11002 11003 11005 11007 11008 11009 11010 11011 11012 11013 11014 11015 11015 11016 11016 11017 11017 11017 11017 11017 11017 11017 11017 11017 11016 11016 11016 11016 11015 11014 11013 11012 11012 11011 11010 11009 11007 11006 11005 11003 11002 11000 10998 10997 10994 10992 10990 10987 10984 10981
10951 10952 10953 10955 10956 10957 10960 10961 10963 10964 10964 10965 10966 10968 10969 10970 10971 10973 10975 10976 10978 10979 10981 10983 10984 10986 10988 10990 10991 10993 10995 10996 10997 10998 10999 11000 11002 11004 11005 11006 11008 11009 11010 11011 11012 11013 11014 11015 11015 11016 11017 11017 11017 11017 11017 11017 11017 11017 11016 11016 11016 11016 11015 11015 11014 11013 11012 11011 11010 11009 11008 11007 11006 11004 11003 11001 10999 10997 10995 10993 10991 10988 10985 10983 10980
10947 10949 10950 10952 10954 10954 10957 10958 10959 10961 10962 10963 10964 10965 10967 10968 10970 10971 10973 10975 10976 10977 10980 10982 10983 10985 10986 10988 10989 10991 10993 10995 10996 10997 10999 11000 11001 11002 11003 11005 11006 11008 11009 11010 11011 11012 11013 11014 11015 11015 11016 11016 11016 11017 11016 11016 11016 11016 11016 11016 11015 11015 11014 11014 11013 11013 11012 11011 11010 11009 11007 11006 11005 11003 11002 11000 10999 10997 10994 10992 10989 10987 10984 10981 10979
10944 10946 10947 10950 10951 10952 10954 10955 10956 10958 10959 10960 10961 10963 10964 10966 10968 10970 10971 10973 10974 10975 10977 10979 10981 10983 10985 10986 10987 10989 10991 10993 10995 10996 10997 10998 10999 11000 11002 11003 11005 11006 11007 11008 11009 11010 11011 11013 11013 11014 11015 11015 11016 11016 11016 11016 11015 11015 11015 11015 11015 11014 11014 11013 11012 11012 11011 11010 11009 11008 11007 11005 11004 11002 11001 10999 10997 10996 10993 10991 10988 10985 10982 10980 10978
10940 10942 10944 10946 10947 10948 10950 10951 10953 10955 10957 10958 10959 10960 10962 10963 10965 10967 10969 10971 10972 10974 10976 10977 10979 10981 10983 10985 10986 10987 10990 10992 10993 10994 10995 10996 10998 10999 11000 11001 11003 11004 11005 11006 11007 11009 11010 11011 11012 11013 11013 11014 11014 11015 11015 11015 11015 11014 11014 11014 11013 11013 11012 11012 11011 11011 11010 11009 11008 11007 11006 11004 11003 11001 10999 10998 10996 10994 10992 10990 10987 10984 10981 10979 10977
10935 10937 10940 10942 10943 10945 10947 10948 10950 10952 10954 10955 10956 10958 10959 10961 10963 10964 10967 10969 10970 10972 10973 10975 10977 10980 10982 10983 10984 10985 10987 10989 10991 10992 10993 10995 10996 10997 10998 10999 11001 11002 11003 11004 11006 11007 11008 11009 11010 11011 11012 11012 11013 11013 11014 11014 11014 11014 11013 11012 11012 11011 11011 11011 11010 11010 11009 11008 11007 11006 11005 11004 11002 11000 10998 10996 10995 10993 10991 10989 10986 10983 10980 10978 10977
10931 10933 10936 10938 10939 10941 10943 10945 10947 10949 10951 10952 10953 10955 10956 10958 10960 10962 10964 10966 10968 10969 10970 10972 10974 10977 10979 10981 10982 10983 10985 10987 10989 10990 10991 10993 10994 10995 10996 10997 10999 11000 11002 11003 11004 11005 11007 11008 11009 11010 11010 11011 11012 11012 11012 11013 11013 11013 11012 11011 11011 11010 11010 11009 11009 11009 11008 11007 11006 11004 11003 11002 11001 10999 10998 10996 10994 10992 10990 10987 10985 10982 10979 10978 10976
10927 10929 10932 10934 10936 10938 10939 10941 10943 10945 10947 10949 10950 10952 10953 10955 10957 10959 10961 10963 10965 10966 10967 10969 10971 10974 10976 10978 10980 10981 10983 10985 10987 10989 10990 10991 10992 10993 10994 10996 10997 10999 11000 11001 11002 11004 11005 11006 11007 11008 11009 11010 11010 11011 11011 11011 11011 11011 11011 11011 11010 11009 11009 11008 11008 11007 11006 11005 11004 11003 11002 11001 10999 10998 10996 10995 10993 10991 10989 10986 10983 10981 10979 10977 10976
10923 10925 10927 10930 10932 10934 10936 10938 10939 10941 10943 10946 10947 10949 10950 10952 10954 10956 10958 10960 10962 10964 10965 10967 10969 10971 10973 10976 10978 10979 10981 10983 10985 10987 10988 10988 10990 10991 10992 10994 10995 10997 10998 11000 11001 11002 11004 11005 11006 11007 11008 11008 11009 11009 11010 11010 11010 11010 11010 11009 11009 11009 11008 11007 11006 11006 11005 11003 11002 11001 11000 10999 10998 10996 10995 10993 10992 10990 10987 10985 10982 10980 10978 10976 10975
10919 10921 10923 10926 10928 10932 10933 10934 10935 10937 10940 10942 10943 10945 10947 10949 10951 10952 10954 10956 10959 10961 10962 10964 10966 10968 10971 10973 10975 10977 10978 10980 10982 10985 10986 10986 10988 10989 10990 10992 10993 10995 10996 10998 10999 11001 11002 11003 11004 11005 11006 11007 11007 11008 11008 11008 11008 11008 11008 11008 11008 11008 11007 11006 11005 11004 11003 11002 11001 11000 10998 10997 10996 10995 10993 10991 10990 10987 10985 10983 10981 10979 10977 10975 10974
10914 10917 10919 10922 10925 10928 10929 10929 10931 10933 10935 10937 10939 10942 10943 10945 10947 10949 10951 10954 10956 10957 10959 10960 10962 10965 10968 10970 10972 10974 10975 10977 10979 10982 10983 10984 10985 10986 10988 10990 10991 10993 10994 10996 10997 10999 11000 11001 11002 11003 11004 11005 11006 11006 11006 11006 11006 11006 11006 11007 11006 11006 11005 11004 11003 11002 11001 11000 10999 10998 10997 10995 10994 10993 10991 10990 10988 10985 10983 10981 10979 10978 10975 10973 10972
10911 10912 10915 10918 10921 10923 10924 10925 10927 10930 10932 10933 10935 10938 10939 10941 10943 10945 10948 10950 10952 10954 10955 10957 10959 10962 10965 10967 10968 10970 10971 10973 10976 10979 10980 10981 10983 10984 10986 10988 10989 10991 10992 10993 10995 10996 10998 10999 11000 11001 11002 11003 11004 11004 11004 11004 11005 11005 11005 11004 11004 11004 11003 11002 11001 11000 10999 10998 10997 10996 10995 10994 10992 10991 10989 10988 10986 10983 10981 10979 10977 10976 10974 10972 10970
10907 10908 10911 10914 10917 10919 10920 10920 10923 10925 10928 10929 10931 10933 10935 10937 10939 10941 10944 10946 10948 10950 10952 10954 10956 10958 10961 10963 10965 10966 10967 10970 10973 10975 10977 10979 10980 10982 10984 10986 10987 10988 10989 10990 10992 10994 10995 10997 10998 10999 11000 11001 11002 11002 11002 11003 11003 11003 11003 11002 11002 11001 11000 10999 10999 10998 10997 10996 10995 10994 10993 10992 10991 10989 10988 10986 10984 10981 10979 10977 10976 10974 10972 10970 10969
10904 10905 10908 10910 10913 10915 10915 10916 10918 10921 10924 10926 10927 10929 10930 10933 10935 10937 10940 10942 10944 10946 10948 10950 10953 10954 10956 10959 10961 10963 10965 10967 10970 10972 10974 10975 10977 10979 10981 10983 10985 10985 10986 10988 10990 10991 10992 10994 10995 10996 10998 10998 10999 11000 11000 11001 11001 11001 11001 11000 11000 10999 10997 10996 10996 10995 10995 10994 10993 10992 10991 10990 10989 10988 10986 10984 10982 10980 10977 10976 10975 10973 10972 10969 10968
10900 10902 10904 10906 10908 10909 10910 10912 10913 10916 10919 10921 10923 10924 10926 10928 10931 10933 10935 10937 10939 10942 10944 10946 10948 10950 10952 10955 10958 10960 10962 10964 10966 10968 10970 10971 10973 10976 10978 10980 10981 10982 10984 10985 10987 10988 10989 10991 10992 10994 10995 10996 10997 10997 10998 10998 10998 10998 10998 10998 10997 10996 10995 10994 10993 10992 10992 10991 10991 10990 10989 10988 10987 10985 10984 10982 10980 10978 10976 10974 10973 10972 10971 10969 10967
10896 10898 10899 10900 10902 10904 10905 10907 10908 10911 10914 10916 10918 10920 10921 10924 10926 10927 10930 10932 10935 10937 10940 10942 10944 10946 10949 10951 10954 10957 10959 10961 10963 10964 10966 10968 10970 10973 10975 10976 10978 10980 10981 10983 10984 10985 10986 10988 10989 10990 10991 10993 10994 10994 10995 10995 10995 10996 10996 10995 10994 10993 10992 10991 10990 10990 10989 10989 10988 10987 10986 10985 10984 10983 10982 10980 10978 10976 10974 10972 10971 10971 10969 10967 10965
10890 10893 10895 10895 10897 10899 10900 10902 10904 10906 10909 10911 10913 10915 10916 10919 10921 10923 10925 10928 10930 10933 10935 10938 10940 10943 10946 10948 10950 10952 10955 10958 10959 10961 10963 10965 10967 10969 10971 10973 10975 10977 10978 10980 10981 10982 10984 10985 10986 10987 10988 10989 10990 10991 10992 10992 10992 10993 10993 10992 10991 10990 10989 10989 10988 10987 10986 10986 10985 10984 10983 10983 10982 10981 10979 10977 10976 10974 10972 10970 10969 10968 10967 10965 10963
10883 10887 10889 10891 10893 10894 10895 10897 10899 10901 10904 10905 10908 10910 10912 10914 10916 10918 10921 10923 10925 10928 10931 10934 10937 10940 10942 10943 10945 10948 10950 10953 10955 10957 10958 10960 10963 10965 10967 10969 10971 10973 10975 10976 10977 10979 10981 10982 10982 10983 10984 10986 10987 10987 10988 10988 10989 10989 10989 10989 10988 10987 10986 10985 10985 10984 10983 10983 10982 10981 10981 10980 10979 10978 10977 10975 10974 10972 10970 10969 10967 10966 10964 10962 10961
10878 10882 10884 10886 10888 10889 10891 10892 10894 10896 10898 10899 10902 10905 10906 10908 10911 10914 10917 10919 10921 10924 10926 10930 10934 10936 10938 10939 10942 10944 10946 10948 10951 10953 10955 10956 10958 10960 10962 10964 10967 10969 10971 10972 10973 10976 10977 10978 10978 10979 10981 10982 10983 10983 10984 10985 10985 10985 10985 10985 10984 10983 10982 10982 10981 10980 10980 10979 10979 10978 10978 10977 10976 10975 10974 10973 10971 10970 10969 10967 10966 10964 10963 10960 10959
10872 10876 10878 10881 10882 10884 10886 10888 10890 10891 10892 10894 10898 10900 10902 10904 10907 10910 10912 10915 10917 10920 10923 10927 10930 10932 10934 10936 10938 10940 10941 10944 10946 10949 10951 10952 10953 10955 10957 10960 10962 10965 10966 10967 10969 10972 10973 10974 10974 10976 10977 10978 10978 10979 10980 10981 10981 10981 10981 10981 10980 10979 10978 10978 10977 10976 10976 10975 10975 10975 10974 10973 10973 10972 10971 10970 10969 10967 10967 10965 10963 10962 10960 10959 10958
10867 10870 10872 10875 10877 10879 10881 10883 10885 10887 10888 10890 10894 10896 10898 10901 10903 10906 10908 10910 10913 10916 10919 10923 10926 10928 10930 10932 10934 10935 10937 10939 10942 10944 10946 10947 10948 10951 10953 10956 10958 10960 10961 10963 10965 10967 10968 10969 10970 10972 10972 10973 10974 10975 10976 10976 10977 10977 10976 10976 10976 10975 10975 10974 10973 10973 10972 10972 10971 10971 10971 10970 10969 10968 10967 10966 10965 10964 10964 10963 10961 10959 10957 10956 10956
10861 10864 10866 10869 10872 10874 10876 10877 10880 10882 10884 10886 10889 10891 10894 10896 10898 10901 10903 10905 10908 10911 10915 10918 10920 10923 10925 10927 10929 10930 10932 10935 10937 10939 10940 10942 10944 10947 10949 10951 10953 10954 10956 10958 10960 10962 10963 10965 10966 10967 10968 10969 10970 10971 10971 10972 10972 10972 10971 10971 10971 10971 10970 10970 10969 10968 10968 10968 10967 10967 10967 10966 10966 10965 10964 10963 10962 10961 10960 10959 10958 10956 10954 10953 10953
10856 10859 10861 10864 10866 10868 10870 10872 10875 10877 10879 10881 10883 10886 10889 10891 10893 10896 10897 10900 10903 10906 10909 10912 10915 10917 10920 10922 10924 10926 10928 10930 10932 10934 10935 10937 10940 10942 10944 10947 10948 10949 10951 10952 10954 10957 10959 10961 10961 10962 10963 10964 10966 10967 10967 10967 10968 10967 10966 10966 10966 10966 10966 10965 10965 10964 10963 10963 10963 10962 10962 10962 10962 10961 10960 10959 10958 10957 10956 10955 10954 10952 10950 10950 10950
10851 10854 10856 10858 10861 10863 10865 10868 10871 10873 10874 10876 10877 10880 10883 10886 10887 10889 10891 10894 10897 10900 10903 10906 10909 10912 10914 10917 10920 10922 10924 10926 10927 10929 10931 10933 10935 10937 10939 10941 10943 10944 10945 10947 10950 10952 10953 10955 10956 10957 10958 10960 10961 10962 10962 10963 10963 10963 10962 10961 10961 10961 10961 10961 10961 10959 10958 10958 10958 10958 10958 10957 10957 10957 10956 10956 10955 10954 10952 10951 10950 10947 10945 10945 10945
10846 10849 10850 10853 10856 10857 10860 10863 10866 10868 10869 10870 10872 10875 10878 10879 10881 10883 10886 10888 10891 10894 10897 10900 10904 10907 10909 10912 10915 10917 10919 10921 10923 10924 10926 10928 10930 10932 10934 10936 10937 10938 10940 10942 10944 10946 10947 10949 10950 10951 10953 10955 10956 10957 10957 10958 10958 10958 10957 10956 10956 10956 10956 10957 10956 10955 10953 10953 10954 10954 10953 10952 10952 10951 10952 10952 10951 10951 10949 10948 10946 10943 10940 10940 10941
10841 10843 10845 10849 10851 10852 10855 10858 10860 10862 10864 10866 10868 10870 10872 10874 10876 10879 10881 10883 10886 10889 10892 10895 10899 10901 10904 10907 10910 10912 10914 10916 10918 10920 10921 10923 10924 10926 10928 10929 10931 10933 10935 10936 10938 10939 10941 10943 10944 10946 10947 10949 10950 10952 10953 10952 10953 10953 10953 10952 10951 10950 10951 10953 10952 10950 10949 10949 10949 10949 10949 10948 10947 10947 10947 10947 10947 10946 10946 10944 10942 10939 10936 10935 10936
10835 10837 10840 10844 10845 10847 10850 10852 10854 10857 10859 10861 10864 10865 10867 10869 10872 10874 10876 10878 10881 10884 10887 10890 10893 10896 10899 10902 10904 10907 10910 10912 10914 10916 10917 10918 10919 10920 10922 10923 10925 10927 10929 10930 10931 10933 10934 10937 10938 10940 10941 10942 10944 10946 10947 10947 10947 10948 10948 10947 10946 10945 10947 10948 10947 10945 10944 10944 10944 10945 10944 10943 10943 10942 10943 10943 10942 10942 10941 10940 10938 10935 10931 10931 10932
10829 10832 10834 10838 10840 10842 10844 10846 10848 10851 10854 10857 10859 10860 10862 10865 10867 10869 10871 10873 10876 10879 10882 10885 10888 10891 10894 10897 10900 10903 10905 10907 10909 10911 10912 10913 10914 10915 10916 10918 10919 10921 10922 10924 10925 10926 10928 10930 10932 10934 10935 10936 10938 10940 10942 10942 10942 10943 10943 10942 10941 10940 10942 10942 10941 10939 10939 10939 10940 10940 10939 10938 10938 10938 10938 10938 10937 10937 10936 10935 10934 10930 10925 10925 10928
10823 10826 10829 10832 10835 10837 10839 10841 10843 10846 10849 10851 10854 10855 10858 10860 10862 10864 10866 10868 10871 10874 10877 10880 10883 10886 10889 10892 10895 10898 10900 10902 10903 10905 10906 10907 10909 10910 10911 10912 10914 10915 10916 10918 10919 10920 10922 10923 10926 10927 10928 10930 10932 10934 10935 10936 10937 10937 10937 10937 10936 10936 10936 10936 10935 10934 10934 10934 10934 10934 10933 10932 10932 10932 10932 10932 10932 10932 10931 10930 10930 10927 10921 10919 10921
10818 10821 10824 10827 10829 10831 10834 10836 10838 10841 10844 10846 10849 10850 10852 10855 10857 10859 10861 10864 10866 10869 10872 10875 10877 10880 10884 10886 10889 10891 10893 10895 10897 10898 10900 10902 10903 10904 10905 10906 10908 10909 10910 10912 10913 10915 10916 10917 10919 10921 10922 10924 10926 10928 10929 10930 10931 10931 10931 10931 10931 10931 10931 10930 10929 10928 10929 10929 10929 10928 10927 10926 10926 10926 10926 10926 10926 10927 10927 10926 10925 10923 10920 10917 10916
10812 10816 10819 10822 10824 10826 10828 10831 10833 10836 10839 10842 10844 10845 10848 10850 10853 10855 10857 10859 10861 10864 10866 10869 10871 10874 10876 10879 10882 10884 10886 10888 10890 10892 10894 10896 10898 10899 10900 10901 10902 10903 10904 10906 10907 10909 10910 10911 10913 10915 10917 10918 10920 10921 10923 10924 10925 10925 10925 10925 10926 10926 10925 10925 10923 10922 10923 10923 10922 10922 10921 10921 10920 10920 10920 10920 10920 10921 10921 10921 10919 10918 10917 10914 10912
10807 10811 10814 10817 10819 10821 10823 10826 10829 10832 10835 10838 10839 10841 10844 10846 10848 10851 10853 10854 10857 10859 10860 10862 10865 10867 10870 10872 10875 10877 10880 10882 10885 10887 10889 10891 10893 10894 10894 10896 10897 10898 10899 10901 10902 10904 10905 10906 10908 10910 10912 10913 10914 10915 10916 10918 10919 10919 10920 10920 10920 10920 10920 10919 10918 10917 10918 10918 10917 10916 10916 10915 10915 10915 10914 10914 10915 10915 10915 10915 10914 10912 10911 10910 10908
10801 10806 10809 10812 10815 10817 10819 10821 10824 10827 10830 10833 10836 10838 10840 10842 10844 10846 10848 10850 10852 10854 10856 10857 10859 10861 10864 10867 10869 10872 10875 10877 10879 10881 10883 10885 10887 10888 10889 10891 10892 10893 10895 10896 10898 10899 10900 10902 10904 10905 10907 10908 10908 10909 10910 10911 10913 10914 10914 10914 10914 10914 10914 10914 10913 10912 10912 10912 10911 10911 10911 10910 10910 10910 10909 10908 10908 10909 10909 10908 10908 10906 10905 10904 10903
10796 10800 10804 10808 10811 10813 10814 10817 10819 10822 10825 10828 10831 10834 10836 10838 10839 10841 10843 10845 10847 10850 10851 10853 10854 10856 10859 10861 10864 10866 10868 10870 10873 10875 10877 10879 10881 10882 10884 10885 10887 10888 10890 10891 10893 10894 10896 10897 10899 10900 10901 10902 10902 10903 10904 10905 10907 10907 10908 10908 10908 10908 10908 10908 10907 10907 10907 10906 10906 10905 10905 10905 10905 10904 10904 10903 10902 10902 10902 10902 10901 10900 10899 10898 10897
10791 10795 10799 10803 10806 10808 10810 10812 10814 10817 10821 10823 10826 10829 10831 10833 10835 10836 10838 10840 10842 10844 10846 10848 10849 10851 10853 10856 10858 10860 10862 10864 10867 10869 10872 10873 10875 10877 10878 10880 10882 10883 10885 10886 10887 10889 10891 10893 10894 10895 10895 10896 10896 10897 10898 10899 10900 10901 10902 10902 10902 10902 10902 10902 10902 10901 10901 10900 10900 10900 10900 10900 10899 10899 10898 10897 10897 10896 10896 10895 10895 10894 10893 10892 10891
10784 10789 10793 10797 10800 10802 10804 10806 10809 10812 10816 10818 10821 10824 10827 10828 10830 10832 10833 10835 10837 10839 10841 10843 10845 10846 10848 10850 10852 10854 10856 10858 10861 10863 10865 10867 10869 10871 10872 10874 10876 10878 10879 10880 10882 10884 10886 10888 10889 10889 10890 10890 10891 10892 10893 10894 10895 10895 10896 10896 10896 10896 10896 10896 10896 10895 10895 10894 10894 10894 10894 10894 10894 10893 10893 10892 10891 10890 10889 10889 10888 10887 10887 10886 10885
10775 10782 10787 10790 10794 10797 10798 10801 10804 10807 10810 10813 10816 10819 10821 10823 10825 10827 10829 10831 10832 10834 10836 10837 10840 10842 10843 10845 10846 10848 10850 10853 10855 10857 10859 10861 10863 10865 10866 10868 10870 10872 10873 10875 10877 10879 10881 10882 10883 10883 10884 10885 10885 10886 10887 10888 10889 10890 10890 10890 10890 10890 10890 10890 10889 10889 10889 10888 10888 10888 10888 10888 10888 10887 10887 10886 10885 10884 10883 10882 10881 10881 10881 10880 10879